Tracking 20241 objects as of 25-Jan-2020
HD Live streaming from Space Station
objects crossing your sky now

FREGAT R/B

Track FREGAT R/B now!


NORAD ID: 41106
Int'l Code: 2015-074B
Perigee: 34,306.1 km
Apogee: 35,841.2 km
Inclination: 2.6 °
Period: 1,399.5 minutes
Semi major axis: 41444 km
RCS: Unknown
Launch date: December 11, 2015
Source: Commonwealth of Independent States (former USSR) (CIS)
Launch site: TYURATAM MISSILE AND SPACE COMPLEX (TTMTR)

Note: This is a ROCKET BODY
aabbcc
Your satellite tracking list
Your tracking list is empty




NASA's NSSDC Master Catalog

Two Line Element Set (TLE):
1 41106U 15074B   20024.25732209 -.00000199 +00000-0 +00000-0 0  9997
2 41106 002.6465 085.2457 0185195 291.8022 066.0523 01.02896432015475
Source of the keplerian elements: AFSPC